SCP
1 1 1 1 1 1 1 1 1 1 1 1 1 1 0 0 0 0 0 0 0 0 0 0 0 0 0 0 0 0 0 0 0 0 0 0 0 0 0 0 0 0 0
1 1 1 1 1 1 1 1 1 1 1 1 1 1 0 0 0 0 0 0 0 0 0 0 0 0 0 0 0 0 0 0 0 0 0 0 0 0 0 0 0 0 0
1 1 1 1 1 1 1 1 1 1 1 1 1 0 0 0 0 0 0 0 0 0 0 0 0 0 0 0 0 0 0 0 0 0 0 0 0 0 0 0 0 0 0
1 1 1 1 1 1 1 1 1 1 1 1 1 1 0 0 0 0 0 0 0 0 0 0 0 0 0 0 0 0 0 0 0 0 0 0 0 0 0 0 0 0 0
1 1 1 1 1 1 1 1 1 1 1 1 1 1 0 0 0 0 0 0 0 0 0 0 0 0 0 0 0 0 0 0 0 0 0 0 0 0 0 0 0 0 0
2 2 2 2 2 1 1 1 1 1 1 1 1 1 0 0 0 0 0 0 0 0 0 0 0 0 0 0 0 0 0 0 0 0 0 0 0 0 0 0 0 0 0
2 2 2 2 2 2 1 1 1 1 1 1 1 1 0 0 0 0 0 0 0 0 0 0 0 0 0 0 0 0 0 0 0 0 0 0 0 0 0 0 0 0 0
2 2 2 2 2 2 1 1 1 1 1 1 1 1 1 0 0 0 0 0 0 0 0 0 0 0 0 0 0 0 0 0 0 0 0 0 0 0 0 0 0 0 0
2 2 2 2 2 2 2 1 1 1 1 1 1 1 1 0 0 0 0 0 0 0 0 0 0 0 0 0 0 0 0 0 0 0 0 0 0 0 0 0 0 0 0
2 2 2 2 2 2 2 1 1 1 1 1 1 1 1 0 0 0 0 0 0 0 0 0 0 0 0 0 0 0 0 0 0 0 0 0 0 0 0 0 0 0 0
2 3 3 2 2 2 2 2 1 1 1 1 1 1 1 1 0 0 0 0 0 1 1 0 0 0 0 0 0 0 0 0 0 0 0 0 0 0 0 0 0 0 0
3 3 3 3 2 2 2 2 1 1 1 1 1 1 1 1 0 0 0 0 0 0 0 0 0 0 0 0 0 0 0 0 0 0 0 0 0 1 1 1 1 1 0
3 3 3 3 2 2 2 2 1 1 1 1 1 1 1 1 0 0 0 0 0 0 0 0 0 0 0 0 0 0 0 0 0 0 0 0 0 0 1 1 1 1 0
3 3 3 2 2 2 2 1 1 1 1 1 1 1 1 1 1 0 0 0 0 0 0 0 0 0 0 0 0 0 0 0 0 0 0 0 0 0 1 1 1 0 0
2 2 2 2 2 2 1 1 1 1 1 1 1 1 1 1 0 0 0 0 0 0 0 0 0 0 0 0 0 0 0 0 0 0 0 0 0 0 1 1 1 0 0
2 2 2 2 2 1 1 1 1 0 0 0 0 0 0 0 0 0 0 0 0 0 0 0 0 0 0 0 0 0 0 0 0 0 0 0 0 0 0 1 0 0 0
2 2 2 2 2 1 1 1 1 0 0 0 0 0 0 0 0 0 0 0 0 0 0 0 0 0 0 0 0 0 0 0 0 0 0 0 0 0 0 0 0 0 0
2 2 1 1 1 1 1 1 1 1 1 0 0 0 0 0 0 0 0 0 0 0 0 0 0 0 0 0 0 0 0 0 0 0 0 0 0 0 0 0 0 0 0
2 1 1 1 1 1 1 1 1 1 1 1 0 0 0 0 0 0 0 0 0 0 0 0 0 0 0 0 0 0 0 0 0 0 0 0 0 0 0 0 0 0 0
2 1 1 1 1 1 1 1 1 1 1 1 1 0 0 0 0 0 0 0 0 0 0 0 0 0 0 0 0 0 0 0 0 0 0 0 0 0 0 0 0 0 0
1 1 1 1 1 1 1 1 1 1 1 1 1 0 0 0 0 0 0 0 0 0 0 0 0 0 0 0 0 0 0 0 0 0 0 0 0 0 0 0 0 0 0
1 1 1 1 1 1 1 1 1 1 1 1 1 0 0 0 0 0 0 0 0 0 0 0 0 0 0 0 0 0 0 0 0 0 0 0 0 0 0 0 0 0 0
1 1 1 1 1 1 1 1 1 1 1 1 1 0 0 0 0 0 0 0 0 0 0 0 0 0 0 0 0 0 0 0 0 0 0 0 0 0 0 0 0 0 0
1 1 1 1 1 1 1 1 1 1 1 1 1 1 0 0 0 0 0 0 0 0 0 0 0 0 0 0 0 0 0 0 0 0 0 0 0 0 0 0 0 0 0
1 1 1 1 1 1 1 1 1 1 1 1 1 1 1 0 0 0 0 0 0 0 0 0 0 0 0 0 0 0 0 0 0 0 0 0 0 0 0 0 0 0 0
1 1 1 1 1 1 1 1 1 1 1 1 1 1 1 0 0 0 0 0 0 0 0 0 0 0 0 0 0 0 0 0 0 0 0 0 0 0 0 0 0 0 0
Wind_Speed
7 6 5 6 5 4 3 3 3 2 2 2 1 2 2 2 2 2 2 3 3 3 3 3 3 3 2 1 2 2 3 4 5 3 2 2 2 3 4 4 5 4 5
8 7 6 5 5 5 4 4 3 3 2 2 1 2 2 2 3 3 3 3 3 3 3 3 3 3 3 2 2 2 3 4 5 6 3 2 2 3 3 4 4 5 5
9 8 7 6 5 4 4 4 3 3 3 2 2 2 2 2 3 3 3 3 4 4 4 4 3 3 3 2 2 2 2 4 4 5 4 2 2 2 3 3 4 4 6
9 8 7 6 6 5 5 4 4 3 3 2 2 2 2 3 3 3 3 3 3 3 4 4 4 3 3 2 2 2 3 3 4 4 4 3 3 2 2 2 3 2 3
8 8 7 6 6 5 5 4 4 3 4 3 2 2 2 3 3 3 1 3 3 3 4 4 5 6 7 4 3 2 2 2 3 3 4 3 3 2 2 2 3 3 2
8 8 8 7 7 6 5 5 4 3 3 3 3 2 2 3 5 5 4 3 3 3 3 2 4 5 5 6 7 6 4 3 3 3 3 4 3 2 1 2 2 2 2
7 7 8 8 7 6 6 6 5 4 4 3 4 4 4 4 5 5 5 1 2 2 2 2 3 4 4 3 4 5 5 5 4 3 3 3 3 3 2 2 2 2 1
8 7 7 8 7 6 6 5 5 4 3 3 3 4 4 4 3 4 4 1 2 3 3 3 3 3 4 3 2 4 4 4 3 2 3 2 3 1 1 2 3 2 2
7 7 7 7 7 7 6 6 5 4 4 3 4 4 4 3 2 2 2 1 2 2 3 4 3 4 5 5 3 3 3 3 4 5 5 4 4 3 1 1 1 2 2
7 7 7 6 6 6 6 6 5 4 4 4 4 3 4 4 2 1 1 1 2 3 3 3 5 4 5 5 2 2 2 2 2 3 3 3 3 3 2 2 1 1 1
6 6 6 6 6 7 6 5 5 5 4 4 4 3 4 4 4 2 1 1 0 1 3 2 2 3 3 3 2 1 1 1 1 2 2 3 3 2 2 2 1 1 0
5 6 6 6 6 7 6 5 5 5 4 4 4 3 4 4 4 3 2 1 1 0 1 2 3 4 2 0 0 0 0 1 1 1 2 2 2 2 2 2 2 2 2
5 5 5 6 5 6 7 6 5 4 4 4 5 4 4 4 4 5 4 2 1 1 2 4 4 5 3 2 3 3 2 2 2 2 2 2 2 3 2 2 2 2 2
5 4 5 5 5 5 5 5 5 5 5 4 4 4 4 4 4 4 4 3 3 3 2 3 4 5 4 2 2 3 3 3 3 2 2 2 2 2 2 2 2 2 2
4 4 4 5 5 4 4 2 3 2 3 3 3 3 3 4 4 5 4 3 3 2 2 2 3 3 3 3 3 3 3 2 2 2 1 1 2 2 2 2 2 2 2
4 4 4 4 4 4 4 2 3 2 4 4 3 2 2 4 7 7 6 4 4 5 3 3 3 3 3 3 3 3 3 3 2 2 2 2 2 2 2 2 2 2 2
4 4 4 4 4 4 4 5 3 2 4 4 3 4 5 6 6 6 5 4 4 5 4 4 4 3 3 3 3 3 3 3 2 2 2 2 2 2 2 2 2 2 2
4 4 4 4 4 5 4 4 4 5 4 2 2 4 6 7 6 6 5 3 3 4 5 4 4 3 3 3 3 3 2 2 2 2 2 2 2 2 2 2 2 3 3
4 3 3 3 3 4 4 4 4 5 4 4 3 3 4 4 4 4 5 4 5 5 5 5 4 3 3 3 2 2 2 2 2 2 2 2 2 2 2 2 2 3 3
3 4 4 3 3 3 4 4 4 4 5 5 5 5 5 4 4 4 5 5 5 5 4 4 3 3 2 2 2 2 2 2 2 2 2 2 2 2 2 3 3 2 2
3 3 4 4 3 3 3 4 4 4 4 4 4 5 8 6 6 6 6 6 5 5 4 3 3 2 2 2 2 2 2 2 2 2 2 2 2 2 3 3 2 1 1
3 3 4 4 3 3 3 3 3 3 4 4 3 5 8 6 4 5 5 5 5 4 3 3 3 2 2 2 2 1 1 1 1 2 3 3 3 3 2 2 2 1 2
4 4 4 4 3 3 3 3 3 4 4 4 4 4 5 4 4 4 4 3 3 3 3 3 3 2 2 1 1 1 1 2 2 3 3 3 3 2 2 2 2 2 2
3 3 3 3 3 3 3 3 2 3 3 3 3 3 4 4 3 3 3 2 3 3 3 3 3 2 2 2 1 1 0 1 2 2 3 3 3 2 2 2 2 1 1
3 3 3 3 3 3 3 2 2 3 3 2 2 3 3 4 4 3 3 2 2 2 3 3 2 2 2 2 0 0 1 1 0 1 2 2 2 2 2 2 1 1 2
2 2 3 2 3 3 3 3 3 3 3 3 2 2 2 3 3 3 3 2 2 2 2 2 2 2 2 2 1 2 2 2 1 1 2 2 1 1 1 2 2 2 2
Wind_Direction
163 162 161 158 158 158 152 137 122 109 87 77 59 63 65 52 47 51 55 55 52 39 34 42 36 28 24 31 54 86 102 113 120 114 106 107 89 103 117 119 120 107 101
162 160 160 152 155 158 152 146 144 134 120 104 87 60 69 65 57 55 50 56 54 47 43 39 35 42 39 37 54 77 101 117 132 133 136 136 125 128 139 147 133 126 117
162 161 158 158 156 156 150 148 143 133 124 114 104 90 67 61 63 62 63 60 58 51 46 42 38 40 39 45 65 81 98 114 126 135 142 140 143 148 142 132 127 126 129
162 161 162 163 159 158 150 148 146 143 139 135 125 108 95 71 57 53 72 72 69 64 56 51 44 40 36 47 74 83 101 111 126 137 144 146 144 155 145 148 132 133 131
157 161 160 155 152 150 152 150 145 150 143 134 122 113 119 105 63 41 65 93 78 75 69 66 67 69 60 54 66 70 102 122 131 140 141 132 133 145 159 157 140 134 129
156 159 155 155 155 154 153 148 147 146 138 137 127 108 85 77 59 47 33 78 78 76 75 82 97 81 73 78 82 80 84 106 127 133 134 144 148 152 151 150 148 148 153
158 158 156 156 155 159 160 153 154 152 138 130 118 105 94 76 56 47 31 57 85 77 67 48 68 75 71 77 93 96 77 73 98 130 139 150 151 159 163 157 142 160 163
157 159 159 159 160 160 157 154 152 144 139 137 129 126 122 101 63 42 14 82 97 82 68 63 78 64 39 35 97 94 88 63 67 111 129 132 131 130 153 155 158 155 166
160 163 163 162 162 163 161 158 152 149 149 152 146 142 132 118 85 42 6 142 125 107 85 61 71 73 40 33 81 94 95 95 80 92 110 128 140 142 120 119 151 173 180
166 167 162 160 163 164 161 158 154 153 159 161 151 150 143 138 138 87 17 236 147 132 113 97 80 77 58 34 59 98 116 115 108 106 114 151 174 184 195 188 179 192 187
155 152 158 160 162 160 157 157 157 163 170 165 155 156 148 148 155 149 98 320 99 150 145 133 119 109 85 35 18 53 137 147 173 167 171 175 181 184 190 188 181 173 187
148 152 156 158 164 155 153 160 162 168 170 169 164 168 158 155 161 170 160 131 19 13 113 117 132 149 137 48 348 238 229 279 216 199 186 184 186 189 192 185 187 192 200
151 152 151 153 149 151 161 166 169 177 187 183 183 188 180 166 162 166 167 159 114 79 75 116 151 179 188 207 217 229 230 241 236 229 213 196 187 179 172 176 195 207 223
154 157 155 156 159 156 166 174 181 187 195 194 191 189 176 167 163 166 173 170 161 160 152 151 181 208 237 240 216 216 228 241 241 243 227 192 171 169 185 188 198 205 212
157 161 163 168 168 162 162 169 177 169 179 192 198 190 178 173 173 165 169 177 185 166 164 176 197 204 206 210 213 217 226 235 244 247 239 205 182 185 193 187 193 216 220
167 172 178 178 172 179 170 146 50 109 122 121 121 139 131 150 159 164 170 171 173 167 186 208 211 213 214 210 215 216 216 225 233 234 231 224 211 207 202 189 188 214 231
185 189 196 190 178 190 186 177 165 101 73 84 111 132 147 159 160 167 170 174 183 172 207 224 219 215 220 226 223 221 215 214 219 222 227 232 226 218 209 202 206 218 229
197 193 205 203 189 191 191 189 183 177 176 166 145 161 164 167 172 177 169 161 201 207 224 229 230 219 218 228 230 224 216 204 203 218 229 241 238 232 229 214 213 226 230
203 196 203 208 201 195 188 189 188 189 191 177 160 153 166 161 168 187 180 212 221 221 225 225 229 232 225 220 221 218 219 211 209 222 223 229 236 236 236 232 231 233 236
208 198 208 217 208 202 198 201 196 195 196 187 186 171 158 171 190 195 205 224 232 233 231 224 222 230 234 230 216 211 215 210 207 223 235 235 231 237 244 242 233 222 219
214 187 202 220 215 211 208 211 209 203 202 198 197 177 173 193 202 202 206 214 225 233 235 230 219 216 220 216 215 217 219 216 211 221 230 238 235 229 238 242 240 227 224
206 191 205 216 214 215 218 220 218 213 207 203 190 171 179 200 207 206 207 209 218 228 228 228 231 217 223 226 217 216 229 241 241 244 234 235 235 229 232 230 221 220 235
215 205 197 208 218 212 220 219 220 225 219 205 189 169 179 205 210 214 216 214 206 210 220 218 227 230 224 222 208 202 215 235 250 251 249 245 241 236 231 233 228 225 229
212 210 207 205 203 212 221 222 226 234 232 213 196 183 183 197 212 217 216 210 207 208 214 213 212 215 224 234 222 199 202 257 264 257 257 258 247 225 220 230 223 211 234
214 212 212 212 206 205 206 206 218 230 232 223 205 196 190 193 205 217 215 206 205 202 205 207 207 207 224 236 213 133 170 159 190 295 275 258 252 225 217 223 208 200 229
224 225 223 212 207 204 206 208 211 217 218 211 201 198 199 200 201 205 199 194 195 190 196 193 188 173 175 187 175 171 161 150 152 260 269 245 238 237 255 243 225 220 225